When you browse on this site, cookies collect data to enhance your experience and personalize the content and advertising you see.
Visit our Privacy Policy to learn more. By continuing to use the site, you agree to this use of cookies and data.
  • In Spain
  • List of Countries
  • For 7 days
  • Water Temperature
  • Satellite Maps
  • Weather Map
  • Weather Widgets
  • user-avatar
    Login

    Hourly Weather Lezhe

    Today, 12 December, Wednesday

    Time Temperature Precipitation Wind Pressure Humidity
    00:00 +1°C° 0 mm 2 mps 739 mmHg 58%
    01:00 +1°C° 0 mm 2 mps 739 mmHg 58%
    02:00 +1°C° 0 mm 2 mps 739 mmHg 57%
    03:00 +1°C° 0 mm 2 mps 739 mmHg 57%
    04:00 +1°C° 0 mm 2 mps 739 mmHg 56%
    05:00 +1°C° 0 mm 2 mps 739 mmHg 56%
    06:00 +1°C° 0 mm 2 mps 739 mmHg 56%
    07:00 +1°C° 0 mm 2 mps 739 mmHg 55%
    08:00 +2°C° 0 mm 2 mps 740 mmHg 51%
    09:00 +5°C° 0 mm 1 mps 740 mmHg 46%
    10:00 +6°C° 0 mm 1 mps 740 mmHg 41%
    11:00 +7°C° 0 mm 1 mps 740 mmHg 39%
    12:00 +7°C° 0 mm 1 mps 740 mmHg 37%
    13:00 +8°C° 0 mm 1 mps 739 mmHg 36%
    14:00 +6°C° 0 mm 1 mps 739 mmHg 40%
    15:00 +5°C° 0 mm 1 mps 740 mmHg 44%
    16:00 +4°C° 0 mm 1 mps 740 mmHg 48%
    17:00 +4°C° 0 mm 1 mps 740 mmHg 49%
    18:00 +3°C° 0 mm 1 mps 740 mmHg 50%
    19:00 +3°C° 0 mm 1 mps 740 mmHg 51%
    20:00 +2°C° 0 mm 2 mps 740 mmHg 50%
    21:00 +1°C° 0 mm 2 mps 741 mmHg 50%
    22:00 +1°C° 0 mm 2 mps 741 mmHg 49%
    23:00 +1°C° 0 mm 2 mps 741 mmHg 48%

    Tomorrow, 13 December, Thursday

    Time Temperature Precipitation Wind Pressure Humidity
    00:00 +1°C° 0 mm 2 mps 741 mmHg 47%
    01:00 +1°C° 0 mm 2 mps 741 mmHg 46%
    02:00 +1°C° 0 mm 2 mps 740 mmHg 46%
    03:00 +1°C° 0 mm 2 mps 740 mmHg 45%
    04:00 +1°C° 0 mm 2 mps 740 mmHg 44%
    05:00 +1°C° 0 mm 2 mps 740 mmHg 44%
    06:00 0°C° 0 mm 3 mps 740 mmHg 43%
    07:00 0°C° 0 mm 3 mps 740 mmHg 42%
    08:00 +2°C° 0 mm 3 mps 740 mmHg 40%
    09:00 +3°C° 0 mm 3 mps 739 mmHg 38%
    10:00 +5°C° 0 mm 3 mps 739 mmHg 36%
    11:00 +5°C° 0 mm 3 mps 739 mmHg 35%
    12:00 +7°C° 0 mm 3 mps 738 mmHg 35%
    13:00 +8°C° 0 mm 3 mps 738 mmHg 34%
    14:00 +7°C° 0 mm 2 mps 738 mmHg 40%
    15:00 +6°C° 0 mm 2 mps 738 mmHg 45%
    16:00 +4°C° 0 mm 2 mps 738 mmHg 51%
    17:00 +3°C° 0 mm 3 mps 738 mmHg 53%
    18:00 +3°C° 0 mm 3 mps 738 mmHg 54%
    19:00 +2°C° 0 mm 3 mps 738 mmHg 56%
    20:00 +2°C° 0 mm 3 mps 738 mmHg 56%
    21:00 +2°C° 0 mm 3 mps 738 mmHg 56%
    22:00 +2°C° 0 mm 3 mps 738 mmHg 56%
    23:00 +2°C° 0 mm 3 mps 738 mmHg 56%

    Day after tomorrow, 14 December, Friday

    Time Temperature Precipitation Wind Pressure Humidity
    00:00 +2°C° 0 mm 3 mps 737 mmHg 56%
    01:00 +2°C° 0 mm 3 mps 737 mmHg 56%
    02:00 +3°C° 0 mm 3 mps 737 mmHg 57%
    03:00 +3°C° 0 mm 3 mps 737 mmHg 59%
    04:00 +3°C° 0 mm 3 mps 736 mmHg 61%
    05:00 +3°C° 0.2 mm 3 mps 736 mmHg 64%
    06:00 +3°C° 0.2 mm 3 mps 736 mmHg 67%
    07:00 +4°C° 0.2 mm 3 mps 736 mmHg 70%
    08:00 +4°C° 0.6 mm 3 mps 736 mmHg 73%
    09:00 +5°C° 0.6 mm 3 mps 736 mmHg 76%
    10:00 +5°C° 0.6 mm 3 mps 737 mmHg 79%
    11:00 +5°C° 0.9 mm 3 mps 736 mmHg 81%
    12:00 +7°C° 0.9 mm 3 mps 736 mmHg 83%
    13:00 +7°C° 0.9 mm 3 mps 736 mmHg 85%
    14:00 +7°C° 0.8 mm 3 mps 735 mmHg 86%
    15:00 +7°C° 0.8 mm 3 mps 735 mmHg 86%
    16:00 +7°C° 0.8 mm 3 mps 735 mmHg 87%
    17:00 +7°C° 0.4 mm 3 mps 736 mmHg 87%
    18:00 +7°C° 0.4 mm 3 mps 736 mmHg 87%
    19:00 +7°C° 0.4 mm 3 mps 736 mmHg 88%
    20:00 +7°C° 0.3 mm 3 mps 736 mmHg 87%
    21:00 +5°C° 0.3 mm 3 mps 736 mmHg 87%
    22:00 +5°C° 0.3 mm 3 mps 736 mmHg 87%
    23:00 +5°C° 0.2 mm 3 mps 736 mmHg 86%

    15 December, Saturday

    Time Temperature Precipitation Wind Pressure Humidity
    00:00 +5°C° 0.2 mm 3 mps 736 mmHg 86%
    01:00 +5°C° 0.2 mm 3 mps 736 mmHg 86%
    02:00 +5°C° 0.1 mm 3 mps 735 mmHg 86%
    03:00 +5°C° 0.1 mm 3 mps 735 mmHg 86%
    04:00 +5°C° 0.1 mm 3 mps 735 mmHg 85%
    05:00 +5°C° 0.1 mm 3 mps 735 mmHg 85%
    06:00 +7°C° 0.1 mm 3 mps 735 mmHg 85%
    07:00 +7°C° 0.1 mm 3 mps 735 mmHg 85%
    08:00 +7°C° 0.2 mm 2 mps 735 mmHg 85%
    09:00 +8°C° 0.2 mm 2 mps 735 mmHg 85%
    10:00 +9°C° 0.2 mm 2 mps 736 mmHg 85%
    11:00 +9°C° 0.2 mm 2 mps 735 mmHg 84%
    12:00 +10°C° 0.2 mm 2 mps 735 mmHg 82%
    13:00 +10°C° 0.2 mm 3 mps 735 mmHg 81%
    14:00 +10°C° 0.1 mm 2 mps 735 mmHg 82%
    15:00 +9°C° 0.1 mm 2 mps 735 mmHg 83%
    16:00 +9°C° 0.1 mm 2 mps 735 mmHg 83%
    17:00 +8°C° 0.1 mm 2 mps 735 mmHg 84%
    18:00 +8°C° 0.1 mm 2 mps 735 mmHg 84%
    19:00 +8°C° 0.1 mm 2 mps 736 mmHg 84%
    20:00 +8°C° 0.3 mm 2 mps 736 mmHg 85%
    21:00 +8°C° 0.3 mm 3 mps 736 mmHg 85%
    22:00 +8°C° 0.3 mm 3 mps 736 mmHg 85%
    23:00 +7°C° 1 mm 3 mps 736 mmHg 86%

    16 December, Sunday

    Time Temperature Precipitation Wind Pressure Humidity
    00:00 +7°C° 1 mm 3 mps 736 mmHg 87%
    01:00 +7°C° 1 mm 3 mps 736 mmHg 88%
    02:00 +7°C° 2 mm 3 mps 736 mmHg 88%
    03:00 +7°C° 2 mm 3 mps 736 mmHg 89%
    04:00 +5°C° 2 mm 3 mps 736 mmHg 89%
    05:00 +5°C° 1.8 mm 3 mps 737 mmHg 89%
    06:00 +5°C° 1.8 mm 3 mps 737 mmHg 89%
    07:00 +4°C° 1.8 mm 3 mps 738 mmHg 89%
    08:00 +4°C° 0.4 mm 3 mps 738 mmHg 87%
    09:00 +4°C° 0.4 mm 3 mps 738 mmHg 86%
    10:00 +5°C° 0.4 mm 4 mps 739 mmHg 84%
    11:00 +5°C° 0.1 mm 4 mps 739 mmHg 83%
    12:00 +5°C° 0.1 mm 4 mps 739 mmHg 82%
    13:00 +6°C° 0.1 mm 4 mps 739 mmHg 81%
    14:00 +5°C° 0 mm 4 mps 739 mmHg 81%
    15:00 +4°C° 0 mm 4 mps 740 mmHg 81%
    16:00 +4°C° 0 mm 4 mps 740 mmHg 81%
    17:00 +3°C° 0 mm 4 mps 740 mmHg 81%
    18:00 +3°C° 0 mm 4 mps 741 mmHg 82%
    19:00 +1°C° 0 mm 4 mps 742 mmHg 82%
    20:00 +2°C° 0 mm 3 mps 742 mmHg 81%
    21:00 +2°C° 0 mm 3 mps 742 mmHg 81%
    22:00 +2°C° 0 mm 3 mps 742 mmHg 81%
    23:00 +2°C° 0 mm 3 mps 742 mmHg 80%

    17 December, Monday

    Time Temperature Precipitation Wind Pressure Humidity
    00:00 +2°C° 0 mm 3 mps 742 mmHg 79%
    01:00 +2°C° 0 mm 3 mps 742 mmHg 78%
    02:00 +4°C° 0 mm 2 mps 742 mmHg 77%
    03:00 +4°C° 0 mm 2 mps 742 mmHg 76%
    04:00 +4°C° 0 mm 2 mps 742 mmHg 75%
    05:00 +4°C° 0 mm 2 mps 742 mmHg 74%
    06:00 +4°C° 0 mm 2 mps 742 mmHg 74%
    07:00 +5°C° 0 mm 2 mps 742 mmHg 73%
    08:00 +7°C° 0 mm 1 mps 742 mmHg 74%
    09:00 +9°C° 0 mm 1 mps 742 mmHg 75%
    10:00 +10°C° 0 mm 1 mps 742 mmHg 76%
    11:00 +11°C° 0 mm 1 mps 742 mmHg 75%
    12:00 +11°C° 0 mm 1 mps 742 mmHg 74%
    13:00 +12°C° 0 mm 1 mps 741 mmHg 73%
    14:00 +11°C° 0 mm 1 mps 741 mmHg 74%
    15:00 +10°C° 0 mm 1 mps 741 mmHg 75%
    16:00 +9°C° 0 mm 1 mps 741 mmHg 76%
    17:00 +9°C° 0 mm 1 mps 742 mmHg 76%
    18:00 +8°C° 0 mm 1 mps 742 mmHg 75%
    19:00 +8°C° 0 mm 1 mps 742 mmHg 75%
    20:00 +8°C° 0 mm 1 mps 742 mmHg 75%
    21:00 +6°C° 0 mm 2 mps 742 mmHg 75%
    22:00 +6°C° 0 mm 2 mps 742 mmHg 75%
    23:00 +6°C° 0 mm 2 mps 742 mmHg 76%
    Show more